Date,TemperatureHighF,TemperatureAvgF,TemperatureLowF,DewpointHighF,DewpointAvgF,DewpointLowF,HumidityHigh,HumidityAvg,HumidityLow,PressureMaxIn,PressureMinIn,WindSpeedMaxMPH,WindSpeedAvgMPH,GustSpeedMaxMPH,PrecipitationSumIn
2013-8-1,77.0,62.4,44.0,56.0,49.9,44.0,99,70,36,0.00,40.00,11,3,18,0.00
2013-8-2,75.0,62.1,49.0,58.0,49.5,44.0,99,70,35,0.00,40.00,12,4,21,0.00
2013-8-3,73.0,58.4,41.0,57.0,45.9,40.0,99,71,33,0.00,40.00,11,3,19,0.00
2013-8-4,73.0,57.8,40.0,56.0,46.5,40.0,99,72,39,0.00,40.00,5,1,12,0.00
2013-8-5,73.0,60.7,50.0,65.0,58.7,50.0,99,93,70,0.00,40.00,7,2,14,0.00
2013-8-6,76.0,66.0,60.0,65.0,60.0,54.0,98,84,47,0.00,40.00,7,2,12,0.00
2013-8-7,71.0,62.5,59.0,62.0,56.4,43.0,99,84,36,0.00,40.00,9,4,16,0.00
2013-8-8,73.0,63.3,48.0,61.0,54.9,48.0,99,77,42,0.00,40.00,5,2,13,0.00
2013-8-9,70.0,60.5,49.0,58.0,49.2,43.0,99,71,39,0.00,40.00,6,2,15,0.00
2013-8-10,75.0,61.9,51.0,58.0,52.7,48.0,99,76,40,0.00,40.00,3,1,9,0.00
2013-8-11,79.0,59.5,43.0,60.0,49.8,43.0,99,77,34,0.00,40.00,7,1,13,0.00
2013-8-12,75.0,60.3,45.0,60.0,51.3,44.0,99,77,41,0.00,40.00,9,3,17,0.00
2013-8-13,69.0,53.5,38.0,56.0,42.3,-99.9,99,73,38,0.00,40.00,9,2,17,0.00
2013-8-14,74.0,54.5,36.0,54.0,41.6,-99.9,99,73,33,0.00,40.00,8,2,17,0.00
2013-8-15,79.0,57.7,44.0,56.0,41.2,-99.9,99,69,31,0.00,40.00,6,2,15,0.00
2013-8-16,82.0,62.1,44.0,63.0,47.1,-99.9,99,70,31,0.00,40.00,5,1,11,0.00
2013-8-17,80.0,63.4,46.0,61.0,48.4,-99.9,99,67,34,0.00,40.00,11,3,20,0.00
2013-8-18,80.0,65.1,48.0,59.0,51.7,48.0,99,68,33,0.00,40.00,9,4,21,0.00
2013-8-19,84.0,68.4,58.0,66.0,54.3,-99.9,94,69,46,0.00,40.00,9,4,19,0.00
2013-8-20,89.0,76.7,67.0,71.0,66.0,64.0,93,72,46,0.00,40.00,11,5,21,0.00
2013-8-21,85.0,75.0,59.0,74.0,67.6,56.0,99,80,41,0.00,40.00,9,4,18,0.00
2013-8-22,80.0,66.1,49.0,61.0,48.3,41.0,99,62,25,0.00,40.00,7,3,14,0.00
2013-8-23,85.0,61.3,40.0,58.0,46.7,40.0,99,69,23,0.00,40.00,5,1,12,0.00
2013-8-24,83.0,71.2,58.0,70.0,59.9,-99.9,99,72,50,0.00,40.00,14,7,30,0.00
2013-8-25,95.0,83.3,75.0,72.0,69.8,67.0,86,66,41,0.00,40.00,11,6,26,0.00
2013-8-26,88.0,77.8,70.0,77.0,73.1,70.0,99,87,61,0.00,40.00,16,3,39,0.00
2013-8-27,81.0,72.2,69.0,73.0,70.3,69.0,99,95,70,0.00,40.00,6,3,11,0.00
2013-8-28,87.0,78.0,69.0,71.0,64.7,57.0,96,68,38,0.00,40.00,2,1,6,0.00
2013-8-29,83.0,71.7,65.0,71.0,68.0,64.0,99,89,65,0.00,40.00,9,3,14,0.00
2013-8-30,77.0,69.6,58.0,71.0,64.0,57.0,99,85,52,0.00,40.00,10,4,21,0.00
2013-8-31,82.0,67.1,53.0,67.0,57.6,-99.9,99,77,47,0.00,40.00,7,2,12,0.00